Location: Palo Alto
(37.4420°N, 122.1420°W)
Time: 19:06:43
(UTC-07:00)

Daily predictions for brighter satellites

Satellite Brightness Start Highest point End
(mag) Time Altitude Azimuth Time Altitude Azimuth Time Altitude Azimuth
CORIOLIS 4.2 18:47:07 10° SSE 18:52:30 89° ENE 18:57:56 10° NNW
Landsat 4 4.1 18:50:38 10° N 18:54:20 66° WNW 18:58:00 10° SSW
FENGYUN 3A 4.5 18:51:21 10° SE 18:55:55 29° ENE 19:00:29 10° N
Meteor 2-15 4.4 18:49:53 10° N 18:56:00 76° E 19:02:06 10° SSE
Tiangong 1 0.6 18:54:33 10° WNW 18:57:16 83° NNE 18:59:56 10° ESE
CZ-2C R/B 4.1 18:54:46 10° N 18:59:16 67° WNW 19:03:41 10° SSW
MOS 1 4.4 18:55:04 10° SSE 19:00:35 58° ENE 19:06:09 10° N
Cosmos 1400 Rocket 3.5 18:57:52 10° NNE 19:01:31 31° ENE 19:05:05 10° SE
Cosmos-2242 3.2 18:57:15 10° S 19:01:31 78° W 19:05:47 10° N
ASTRO E2 4.1 18:58:15 10° SW 19:01:38 27° SSE 19:05:01 10° ESE
Meteor 2-14 Rocket 4.4 18:57:50 10° S 19:03:56 81° E 19:10:02 10° N
ERS-2 2.7 19:02:21 10° S 19:05:59 62° WSW 19:09:40 10° NNW
Meteor 2-16 Rocket 4.4 19:00:25 10° S 19:06:28 72° E 19:12:34 10° NNE
Meteor 1-28 Rocket 4.1 19:04:52 10° N 19:08:35 54° WNW 19:12:15 10° SSW
SKYMED 2 3.5 19:05:57 10° NNE 19:10:18 74° ESE 19:14:38 10° S
Cosmos 1624 Rocket 3.9 19:05:39 10° NNW 19:10:52 72° ENE 19:16:05 10° SSE
Cosmos 1908 4.3 19:09:22 10° SE 19:12:32 24° E 19:15:43 10° NE
Cosmos 1371 Rocket 4.1 19:07:49 10° NNW 19:13:13 88° WSW 19:18:34 10° SSE
Thor Agena Rocket 4.2 19:09:41 10° NE 19:14:11 31° E 19:18:37 10° SSE
Cosmos 1743 Rocket 3.6 19:12:34 10° N 19:16:53 56° E 19:21:12 10° SSE
Cosmos 2151 3.3 19:15:11 10° N 19:19:18 44° E 19:23:22 10° SSE
Iridium 4 Rocket 4.4 19:15:02 10° SE 19:19:40 30° E 19:24:36 10° NNE
SL-16 R/B 2.3 19:14:15 10° NNW 19:19:57 85° WSW 19:25:37 10° SSE
H-2A R/B 4.1 19:18:13 11° ESE 19:20:49 20° ENE 19:23:43 10° NNE
FALCON 9 R/B 3.0 19:19:45 10° SW 19:21:22 16° S 19:23:32 10° SSE
Cosmos 1842 Rocket 3.5 19:17:35 10° S 19:22:01 68° E 19:26:28 10° NNE
Delta 2 Rocket 3.6 19:19:06 10° WSW 19:22:35 42° SSE 19:24:46 18° ESE
Cosmos 44 4.4 19:22:35 10° SSE 19:25:36 18° ESE 19:26:23 17° E
FREGAT/IRIS 3.9 19:28:22 22° ENE 19:28:22 22° ENE 19:30:41 10° NNE
ISS -2.6 19:26:04 10° WNW 19:29:10 41° SW 19:32:16 10° SSE
Centaur D AC-28 4.3 19:27:47 10° SSE 19:29:29 11° SE 19:30:48 11° ESE
APEX 4.3 19:29:08 10° SSE 19:31:23 19° ESE 19:31:23 19° ESE
Cosmos 2221 3.0 19:29:20 10° SSE 19:33:16 37° E 19:37:16 10° NNE
Cosmos 44 Rocket 4.2 19:32:35 10° SSE 19:36:24 25° ESE 19:37:31 23° E
Cosmos 1500 Rocket 3.4 19:34:54 10° N 19:39:16 77° E 19:43:34 10° S
Cosmos 1315 Rocket 3.0 19:38:40 10° N 19:42:37 48° E 19:46:34 10° SSE
SPOT 3 Rocket 4.0 19:40:56 10° S 19:46:03 65° WSW 19:51:15 10° NNW
Cosmos 921 Rocket 3.3 19:41:55 10° N 19:46:13 44° ENE 19:48:43 22° SE
Cosmos 158 Rocket 4.1 19:42:06 10° S 19:46:52 47° ESE 19:51:47 10° NNE
Cosmos 2058 3.2 19:49:07 10° NNW 19:53:17 71° W 19:57:24 10° S
Cosmos 1269 Rocket 4.4 19:49:11 10° S 19:54:02 40° ESE 19:57:37 17° NE
Cosmos 1626 3.5 19:53:17 10° NNW 19:56:49 40° W 20:00:19 10° SSW
COSMOS 2428 3.3 19:52:11 10° N 19:57:20 34° ENE 19:58:24 31° E
RESURS DK-1 2.3 19:53:33 10° NNW 19:57:39 61° ENE 19:59:03 37° SE
Cosmos 2333 Rocket 3.7 19:56:35 10° N 20:00:04 19° NE 20:00:04 19° NE
Cosmos 2098 Rocket 3.1 19:57:05 10° SSE 20:00:56 54° E 20:05:50 10° NNE
Cosmos 2360 Rocket 2.1 19:58:26 10° NNW 20:04:07 88° ENE 20:09:47 10° SSE
FengYun 1-2 T 4.1 19:59:15 10° SSE 20:04:43 72° ENE 20:10:12 10° N
Cosmos 468 4.4 20:00:11 10° SSW 20:05:23 87° ESE 20:10:39 10° NNE
SJ-6B 2.9 20:06:33 51° NE 20:06:33 51° NE 20:09:46 10° N
Cosmos 2219 3.4 20:01:20 10° S 20:06:50 49° ESE 20:09:45 26° NE
Cosmos 2322 Rocket 4.0 20:05:11 10° NW 20:10:02 31° WSW 20:14:53 10° SSW
SL-8 R/B 4.2 20:05:38 10° WSW 20:10:22 56° NNW 20:12:25 32° NE
SL-24 R/B - RUBIN 2 3.5 20:06:02 10° NNW 20:10:51 72° ENE 20:11:47 53° ESE
Cosmos 1452 Rocket 3.6 20:11:01 10° NNW 20:16:16 77° WSW 20:21:11 12° S
MOS 1-B Rocket 4.0 20:16:03 44° E 20:16:42 46° ENE 20:22:16 10° N
Cosmos 1805 Rocket 3.6 20:13:03 10° N 20:16:56 59° NE 20:16:56 59° NE
BREEZE-M DEB (TANK) 4.0 20:08:34 10° W 20:17:26 36° NNW 20:19:03 27° NNE
Cosmos 1821 Rocket 3.8 20:13:30 10° S 20:19:37 84° E 20:25:52 10° N
Cosmos 1000 Rocket 4.4 20:17:23 10° N 20:23:40 89° W 20:29:50 10° S
ALOS 3.9 20:21:19 10° SSW 20:25:31 34° W 20:29:46 10° NNW
DELTA 2 R/B (1) 3.5 20:20:58 10° WNW 20:26:35 80° N 20:27:28 63° E
Cosmos 2239 Rocket 4.4 20:22:28 10° S 20:28:36 82° W 20:34:46 10° N
USA 267 3.2 20:24:25 24° NE 20:28:39 81° NW 20:35:11 10° SW
Atlas Centaur 2 3.0 20:23:44 10° WSW 20:28:43 40° S 20:29:50 37° SSE
Cosmos 1934 Rocket 3.9 20:22:27 10° S 20:28:46 75° E 20:35:09 10° N
Cosmos 2322 3.9 20:24:10 10° NNW 20:29:53 71° WSW 20:33:24 24° S
Tiangong 1 4.0 20:30:43 10° WSW 20:31:05 11° WSW 20:31:05 11° WSW
ASTRO E2 4.5 20:38:08 10° WSW 20:40:20 26° SW 20:40:20 26° SW
CZ-4C R/B 1.9 20:37:49 10° SSW 20:42:52 89° SW 20:42:52 89° SW
Cosmos 2123 Rocket 3.8 20:43:43 10° N 20:49:59 83° E 20:50:17 80° SE
Cosmos 2219 Rocket 3.0 20:49:12 10° NNW 20:52:46 39° N 20:52:46 39° N
Resurs 01 Rocket 3.9 21:05:10 18° NNW 21:05:10 18° NNW 21:06:18 10° NNW
USA 234 4.1 21:02:44 36° NNE 21:02:44 36° NNE 21:07:55 10° NNW
Envisat 4.5 21:06:42 29° NNW 21:06:42 29° NNW 21:09:08 10° NNW
Cosmos 2237 Rocket 4.1 21:17:31 10° NNW 21:19:20 21° N 21:19:20 21° N
COSMOS 2428 4.4 21:36:34 10° NW 21:40:27 29° W 21:40:27 29° W
Cosmos 2333 Rocket 4.1 21:39:44 10° NNW 21:42:05 25° NW 21:42:05 25° NW
